[[{"header":{"parameterUnit":"m.s-1","parameterCategory":1,"la1":30.2991,"la2":30.254,"lo1":-89.0895,"lo2":-89.0444,"dy":0.0017,"dx":0.0017,"nx":28,"ny":28,"refTime":"2025-12-23T09:00:00:Z","depth":0,"parameterNumber":2,"parameterNumberName":"U-component_of_WINDS"},"data":[0,0,0,0,0,0,0,0,0,0,0,0,0,0,0,0,0,0,0,0,0,0,0,0,0,0,0,0,0,0,0,0,0,0,0,0,0,0,0,0,0,0,0,0,0,0,0,0,0,0,0,0,0,0,0,0,0,0,-1.9442,-1.9442,0,-1.9455,-1.9456,-1.9456,-1.9402,-1.9401,-1.9399,-1.9397,-1.9413,-1.9415,-1.9417,0,0,0,0,0,0,0,0,0,0,0,0,0,-1.9371,-1.9373,-1.9442,-1.9442,-1.9442,-1.9455,-1.9456,-1.9456,-1.9402,-1.94,-1.9399,-1.9397,-1.9413,-1.9415,-1.9417,0,0,0,0,0,0,0,0,0,0,0,0,0,-1.9395,-1.9373,-1.9442,-1.9417,-1.9415,-1.9455,-1.9456,-1.9456,-1.9403,-1.94,-1.9398,-1.9396,-1.9412,-1.9415,-1.9418,-1.9483,0,0,-1.9426,-1.9428,0,0,0,0,0,0,0,0,-1.9394,-1.9398,-1.942,-1.9419,-1.9416,-1.9425,-1.9436,-1.9465,-1.9403,-1.9407,-1.9397,-1.9395,-1.9419,-1.9421,-1.9429,-1.9484,-1.9485,-1.9427,-1.9428,-1.943,-1.943,0,0,0,0,0,0,0,-1.9392,-1.9397,-1.9447,-1.9421,-1.9418,-1.9406,-1.9407,-1.9442,-1.9427,-1.9407,-1.9403,-1.9405,-1.9418,-1.9427,-1.9429,-1.9485,-1.9427,-1.9429,-1.9431,-1.9432,-1.9594,-1.9597,0,0,0,0,0,0,-1.9393,-1.9396,-1.9447,-1.9448,-1.9399,-1.9409,-1.941,-1.9424,-1.9426,-1.9424,-1.9407,-1.9403,-1.9423,-1.9426,-1.943,-1.9506,-1.943,-1.9432,-1.9434,-1.9592,-1.9595,-1.9597,0,0,0,0,0,0,-1.9392,-1.9398,-1.9446,-1.9421,-1.9426,-1.9413,-1.943,-1.9426,-1.9435,-1.9426,-1.9424,-1.9419,-1.9421,-1.9426,-1.947,-1.9506,-1.9434,-1.9436,-1.9588,-1.9592,-1.9596,-1.966,0,0,0,0,0,0,-1.939,-1.9398,-1.9423,-1.9422,-1.9427,-1.9486,-1.9432,-1.9428,-1.944,-1.9434,-1.9437,-1.9435,-1.942,-1.9466,-1.9473,-1.9509,-1.9438,-1.9585,-1.959,-1.9595,-1.9655,-1.9666,-1.9675,0,0,0,0,0,-1.9388,-1.9441,-1.9424,-1.9431,-1.9457,-1.9488,-1.9492,-1.9472,-1.9443,-1.9467,-1.9462,-1.9435,-1.9501,-1.9471,-1.9478,-1.9515,-1.9583,-1.9589,-1.9594,-1.965,-1.9663,-1.9675,0,0,0,0,0,0,-1.9447,-1.944,-1.9422,-1.9475,-1.9483,-1.9479,-1.9509,-1.9487,-1.9504,-1.9497,-1.9474,-1.9475,-1.9524,-1.9524,-1.9491,-1.9579,-1.9537,-1.9544,-1.9577,-1.9589,-1.9599,-1.9598,-1.9441,0,0,0,0,0,-1.9466,-1.9491,-1.9484,-1.9532,-1.9537,-1.9523,-1.9535,-1.952,-1.9527,-1.953,-1.9528,-1.9536,-1.9559,-1.9574,-1.9594,-1.9655,-1.9655,-1.9684,-1.9694,-1.9702,-1.9709,-1.9741,-1.9754,-1.9617,-1.9616,-1.9616,0,0,-1.9506,-1.9505,-1.9523,-1.9544,-1.9548,-1.9575,-1.9526,-1.9556,-1.9576,-1.9535,-1.9576,-1.9575,-1.9583,-1.9636,-1.9659,-1.9638,-1.9747,-1.971,-1.9717,-1.9719,-1.9748,-1.9761,-1.9773,-1.962,-1.962,-1.9619,0,0,-1.9592,-1.9594,-1.9634,-1.9639,-1.9645,-1.9636,-1.9646,-1.9646,-1.9643,-1.9684,-1.9654,-1.9678,-1.9717,-1.9724,-1.9732,-1.9822,-1.9798,-1.9829,-1.9882,-1.9914,-1.9924,-1.9934,-1.9966,-1.9977,-1.9836,-1.9836,-1.9836,0,-1.9641,-1.968,-1.9658,-1.9691,-1.9701,-1.9664,-1.9705,-1.9711,-1.9724,-1.9732,-1.9708,-1.9757,-1.976,-1.9813,-1.9835,-1.9843,-1.9854,-1.9829,-1.9925,-1.9934,-1.9942,-1.9972,-1.9984,-1.984,-1.984,-1.9839,-1.9839,0,-1.974,-1.9767,-1.9799,-1.9812,-1.9826,-1.9863,-1.9847,-1.9864,-1.9847,-1.984,-1.9883,-1.9885,-1.9905,-1.9917,-1.9902,-1.9969,-1.9955,-1.9928,-1.9886,-1.996,-1.9987,-1.9999,-1.9846,-1.9844,-1.9843,-1.9842,0,0,-1.9863,-1.9863,-1.9875,-1.988,-1.9885,-1.9906,-1.9942,-1.996,-1.9975,-1.9986,-2.0015,-2.005,-2.0025,-2.0035,-2.002,-2.0047,-2.0118,-2.0017,-2.0017,-2.0035,-2.0192,-2.0212,-2.0225,-2.0102,-2.0104,-2.0106,-2.0191,0,-1.9947,-2.0007,-1.9988,-2.0048,-2.0074,-2.0039,-2.007,-2.0077,-2.0071,-2.0093,-2.0087,-2.0112,-2.0077,-2.0083,-2.0108,-2.0104,-2.0149,-2.0097,-2.0129,-2.013,-2.0127,-2.024,-2.0261,-2.0341,-2.0202,-2.0204,-2.0205,0,-2.0053,-2.0067,-2.013,-2.013,-2.014,-2.0168,-2.0184,-2.0205,-2.0212,-2.0206,-2.0217,-2.0197,-2.0232,-2.0189,-2.0237,-2.0203,-2.0215,-2.0215,-2.0217,-2.0219,-2.0172,-2.0244,-2.0367,-2.0379,-2.0222,-2.022,-2.0219,0,-2.0137,-2.0171,-2.0213,-2.0219,-2.022,-2.0241,-2.0243,-2.0247,-2.026,-2.0274,-2.0282,-2.0301,-2.0311,-2.0326,-2.0311,-2.0282,-2.0362,-2.0318,-2.0358,-2.0359,-2.0376,-2.0375,-2.0502,-2.0385,-2.0385,-2.0385,-2.0384,0,-2.0233,-2.0272,-2.0251,-2.0276,-2.032,-2.0299,-2.0343,-2.034,-2.0345,-2.037,-2.0342,-2.0366,-2.0345,-2.0368,-2.0357,-2.0399,-2.0404,-2.04,-2.0397,-2.0402,-2.0403,-2.041,-2.0404,-2.0388,-2.0387,-2.0387,-2.0386,0,-2.0333,-2.032,-2.0363,-2.0361,-2.0361,-2.0394,-2.0392,-2.0416,-2.0409,-2.0441,-2.0447,-2.0436,-2.0461,-2.0448,-2.0475,-2.0467,-2.0521,-2.051,-2.0519,-2.0515,-2.0556,-2.0553,-2.0691,-2.0708,-2.0581,-2.0582,-2.0583,0,-2.0395,-2.0424,-2.0425,-2.044,-2.0443,-2.0467,-2.0479,-2.046,-2.0475,-2.0485,-2.0508,-2.053,-2.0547,-2.0589,-2.0584,-2.0604,-2.0594,-2.0641,-2.0596,-2.0601,-2.0594,-2.0592,-2.0595,-2.065,-2.0651,-2.0652,-2.0653,0,-2.0506,-2.0498,-2.0517,-2.0534,-2.055,-2.0562,-2.0573,-2.0586,-2.0567,-2.0585,-2.061,-2.0623,-2.065,-2.0673,-2.069,-2.0693,-2.067,-2.0667,-2.0678,-2.0684,-2.0687,-2.0686,-2.0542,-2.0664,-2.0663,-2.0662,-2.0662,-2.0661,-2.0588,-2.0613,-2.0618,-2.064,-2.0645,-2.0656,-2.0678,-2.0674,-2.0694,-2.0713,-2.0701,-2.0731,-2.0737,-2.0758,-2.0763,-2.0787,-2.0768,-2.0783,-2.0787,-2.0791,-2.0796,-2.0684,-2.079,-2.0789,-2.0789,-2.0789,-2.0789,0,-2.0698,-2.0699,-2.072,-2.0735,-2.0752,-2.0729,-2.0739,-2.0756,-2.0782,-2.079,-2.0807,-2.0836,-2.0858,-2.0855,-2.0875,-2.0894,-2.0885,-2.09,-2.0899,-2.0899,-2.0812,-2.0801,-2.0908,-2.0908,-2.0908,-2.0908,-2.0908,-2.0908,-2.0757,-2.0797,-2.079,-2.0833,-2.0834,-2.0862,-2.087,-2.088,-2.0886,-2.0919,-2.0937,-2.0935,-2.0938,-2.0958,-2.0978,-2.0976,-2.0985,-2.1005,-2.0999,-2.0917,-2.0906,-2.0894,-2.0884,-2.1007,-2.1007,-2.1085,-2.1086,-2.1086]},{"header":{"parameterUnit":"m.s-1","parameterCategory":1,"la1":30.2991,"la2":30.254,"lo1":-89.0895,"lo2":-89.0444,"dy":0.0017,"dx":0.0017,"nx":28,"ny":28,"refTime":"2025-12-23T09:00:00:Z","depth":0,"parameterNumber":3,"parameterNumberName":"V-component_of_WINDS"},"data":[0,0,0,0,0,0,0,0,0,0,0,0,0,0,0,0,0,0,0,0,0,0,0,0,0,0,0,0,0,0,0,0,0,0,0,0,0,0,0,0,0,0,0,0,0,0,0,0,0,0,0,0,0,0,0,0,0,0,-0.3529,-0.3528,0,-0.3438,-0.3437,-0.3436,-0.3347,-0.3346,-0.3345,-0.3344,-0.325,-0.3249,-0.3247,0,0,0,0,0,0,0,0,0,0,0,0,0,-0.3626,-0.3625,-0.3529,-0.3528,-0.3527,-0.3438,-0.3437,-0.3436,-0.3347,-0.3346,-0.3345,-0.3343,-0.3251,-0.3249,-0.3247,0,0,0,0,0,0,0,0,0,0,0,0,0,-0.3565,-0.3624,-0.3529,-0.3472,-0.3466,-0.3438,-0.3437,-0.3435,-0.3348,-0.3346,-0.3344,-0.3343,-0.3251,-0.3249,-0.3247,-0.3268,0,0,-0.324,-0.3239,0,0,0,0,0,0,0,0,-0.3568,-0.3561,-0.3482,-0.3476,-0.3469,-0.3402,-0.3437,-0.3379,-0.3348,-0.3393,-0.3344,-0.3342,-0.3302,-0.3296,-0.3282,-0.3264,-0.326,-0.324,-0.3239,-0.3238,-0.3237,0,0,0,0,0,0,0,-0.3573,-0.3564,-0.3493,-0.3481,-0.3473,-0.3451,-0.344,-0.3425,-0.3358,-0.3389,-0.3382,-0.3372,-0.3298,-0.3285,-0.3279,-0.3258,-0.324,-0.3238,-0.3237,-0.3236,-0.3252,-0.3253,0,0,0,0,0,0,-0.3586,-0.3569,-0.3496,-0.349,-0.3516,-0.3451,-0.3439,-0.3426,-0.3358,-0.3346,-0.3374,-0.3369,-0.3289,-0.3282,-0.3276,-0.3295,-0.3238,-0.3236,-0.3235,-0.325,-0.3252,-0.3254,0,0,0,0,0,0,-0.3588,-0.358,-0.35,-0.3528,-0.3516,-0.3451,-0.3437,-0.3425,-0.3411,-0.3347,-0.3334,-0.3372,-0.3287,-0.3279,-0.327,-0.3291,-0.3235,-0.3233,-0.3248,-0.3251,-0.3253,-0.3335,0,0,0,0,0,0,-0.3591,-0.3581,-0.3589,-0.3529,-0.3515,-0.3496,-0.3438,-0.3424,-0.3407,-0.3399,-0.3342,-0.3331,-0.3285,-0.3274,-0.3268,-0.3287,-0.3231,-0.3246,-0.3249,-0.3252,-0.333,-0.334,-0.3349,0,0,0,0,0,-0.3595,-0.3616,-0.359,-0.3582,-0.3523,-0.3498,-0.349,-0.3437,-0.3409,-0.3416,-0.3375,-0.3333,-0.329,-0.3274,-0.3267,-0.3285,-0.3244,-0.3248,-0.3252,-0.3326,-0.3338,-0.3348,0,0,0,0,0,0,-0.368,-0.3607,-0.3577,-0.3579,-0.3545,-0.3483,-0.349,-0.3452,-0.3425,-0.3418,-0.3354,-0.3342,-0.3341,-0.3312,-0.3296,-0.3301,-0.3261,-0.3264,-0.332,-0.3331,-0.334,-0.3346,-0.323,0,0,0,0,0,-0.3699,-0.3685,-0.3622,-0.363,-0.3614,-0.3555,-0.3542,-0.3505,-0.3467,-0.3452,-0.3411,-0.3376,-0.3354,-0.3341,-0.3318,-0.3326,-0.3312,-0.3335,-0.3344,-0.3352,-0.3355,-0.3356,-0.3365,-0.3266,-0.3266,-0.3266,0,0,-0.3738,-0.3696,-0.3691,-0.3646,-0.3615,-0.3601,-0.3544,-0.3532,-0.3521,-0.345,-0.3439,-0.3408,-0.3365,-0.3365,-0.3363,-0.3341,-0.3379,-0.3357,-0.3364,-0.3362,-0.3361,-0.337,-0.3379,-0.3269,-0.3269,-0.3268,0,0,-0.3802,-0.3769,-0.3772,-0.3742,-0.3697,-0.3658,-0.3658,-0.3602,-0.3578,-0.3566,-0.3513,-0.3499,-0.3464,-0.3434,-0.3415,-0.3469,-0.3428,-0.3463,-0.351,-0.3513,-0.352,-0.3527,-0.3545,-0.3552,-0.3466,-0.3466,-0.3466,0,-0.3856,-0.3833,-0.3778,-0.3769,-0.375,-0.3686,-0.3688,-0.3662,-0.3611,-0.36,-0.3576,-0.353,-0.3496,-0.3488,-0.3501,-0.3488,-0.3486,-0.3469,-0.3524,-0.353,-0.3535,-0.3551,-0.3558,-0.3471,-0.347,-0.347,-0.3469,0,-0.3901,-0.3887,-0.3894,-0.3847,-0.3829,-0.3826,-0.377,-0.3758,-0.3723,-0.3686,-0.3675,-0.3632,-0.3599,-0.3594,-0.3559,-0.3581,-0.3569,-0.3536,-0.3494,-0.355,-0.3564,-0.357,-0.3477,-0.3475,-0.3474,-0.3473,0,0,-0.4015,-0.3937,-0.3941,-0.3918,-0.3864,-0.3851,-0.3845,-0.3813,-0.3804,-0.3771,-0.3764,-0.3736,-0.3704,-0.3683,-0.3644,-0.3646,-0.369,-0.3612,-0.361,-0.3627,-0.371,-0.3735,-0.3743,-0.3664,-0.3665,-0.3665,-0.3713,0,-0.4068,-0.4053,-0.4003,-0.4003,-0.3989,-0.3928,-0.3922,-0.3888,-0.3854,-0.3836,-0.3798,-0.3779,-0.3739,-0.3726,-0.3725,-0.3685,-0.3706,-0.3681,-0.3655,-0.3655,-0.3667,-0.375,-0.3776,-0.3824,-0.3719,-0.372,-0.372,0,-0.4128,-0.41,-0.4099,-0.4044,-0.4036,-0.4032,-0.3998,-0.3982,-0.3942,-0.3917,-0.3893,-0.385,-0.384,-0.3802,-0.3787,-0.3771,-0.3758,-0.3737,-0.3737,-0.3731,-0.369,-0.3746,-0.3838,-0.3845,-0.3729,-0.3728,-0.3728,0,-0.421,-0.4171,-0.4165,-0.4148,-0.4085,-0.4083,-0.4057,-0.4015,-0.3999,-0.3969,-0.3958,-0.3928,-0.3911,-0.3889,-0.3839,-0.3816,-0.3829,-0.3787,-0.3807,-0.3808,-0.3811,-0.3811,-0.3901,-0.3805,-0.3805,-0.3805,-0.3805,0,-0.4274,-0.4275,-0.4201,-0.4197,-0.4196,-0.4139,-0.414,-0.4108,-0.4071,-0.406,-0.4006,-0.3996,-0.3931,-0.3914,-0.3875,-0.3868,-0.3861,-0.384,-0.3829,-0.3844,-0.3847,-0.3833,-0.3828,-0.3807,-0.3806,-0.3806,-0.3806,0,-0.4364,-0.4314,-0.4304,-0.4245,-0.423,-0.4232,-0.4182,-0.4176,-0.4138,-0.4125,-0.4118,-0.406,-0.4037,-0.3985,-0.3948,-0.3922,-0.3924,-0.3906,-0.3938,-0.3931,-0.3953,-0.3951,-0.4036,-0.4044,-0.3945,-0.3946,-0.3947,0,-0.4407,-0.4407,-0.4348,-0.4337,-0.4313,-0.4295,-0.4278,-0.4222,-0.4206,-0.4161,-0.416,-0.4133,-0.4108,-0.4074,-0.4028,-0.4,-0.398,-0.4011,-0.3975,-0.399,-0.3979,-0.3979,-0.3978,-0.4019,-0.402,-0.4022,-0.4022,0,-0.4489,-0.4465,-0.4443,-0.4412,-0.4394,-0.4367,-0.4337,-0.433,-0.4267,-0.4252,-0.4228,-0.4209,-0.4172,-0.4145,-0.411,-0.4082,-0.4042,-0.4035,-0.4037,-0.4052,-0.407,-0.4059,-0.3958,-0.4032,-0.4031,-0.4031,-0.403,-0.403,-0.4556,-0.4553,-0.4511,-0.4488,-0.446,-0.4433,-0.4424,-0.4386,-0.4365,-0.433,-0.4299,-0.4278,-0.4237,-0.4186,-0.4161,-0.4143,-0.4123,-0.4127,-0.4128,-0.413,-0.4136,-0.4074,-0.4137,-0.4136,-0.4136,-0.4136,-0.4135,0,-0.4634,-0.4605,-0.4584,-0.4544,-0.4526,-0.449,-0.4456,-0.4443,-0.4425,-0.4391,-0.4368,-0.434,-0.4314,-0.4267,-0.4236,-0.4232,-0.4212,-0.4225,-0.4224,-0.4219,-0.4156,-0.4156,-0.4242,-0.4242,-0.4242,-0.4241,-0.4241,-0.4241,-0.4673,-0.4665,-0.4636,-0.4613,-0.4583,-0.4562,-0.4545,-0.452,-0.4493,-0.4464,-0.4442,-0.4412,-0.4372,-0.4339,-0.4313,-0.43,-0.4291,-0.431,-0.4291,-0.4233,-0.4223,-0.4214,-0.4213,-0.4309,-0.4309,-0.4354,-0.4354,-0.4355]}]]